[[{"header":{"parameterUnit":"m.s-1","parameterCategory":1,"la1":30.2991,"la2":30.254,"lo1":-89.0895,"lo2":-89.0444,"dy":0.0017,"dx":0.0017,"nx":28,"ny":28,"refTime":"2025-08-10T03:00:00:Z","depth":0,"parameterNumber":2,"parameterNumberName":"U-component_of_WINDS"},"data":[0,0,0,0,0,0,0,0,0,0,0,0,0,0,0,0,0,0,0,0,0,0,0,0,0,0,0,0,0,0,0,0,0,0,0,0,0,0,0,0,0,0,0,0,0,0,0,0,0,0,0,0,0,0,0,0,0,0,-3.2478,-3.2478,0,-3.2447,-3.2447,-3.2447,-3.2284,-3.228,-3.2276,-3.2272,-3.2244,-3.2247,-3.225,0,0,0,0,0,0,0,0,0,0,0,0,0,-3.2398,-3.2401,-3.2478,-3.2478,-3.2477,-3.2447,-3.2447,-3.2447,-3.2284,-3.228,-3.2275,-3.227,-3.2243,-3.2247,-3.225,0,0,0,0,0,0,0,0,0,0,0,0,0,-3.2407,-3.2401,-3.2478,-3.2393,-3.2385,-3.2447,-3.2447,-3.2446,-3.2285,-3.228,-3.2274,-3.2268,-3.2242,-3.2246,-3.2251,-3.2394,0,0,-3.2264,-3.2266,0,0,0,0,0,0,0,0,-3.2407,-3.241,-3.2406,-3.2399,-3.239,-3.2363,-3.2408,-3.2429,-3.2287,-3.2323,-3.2272,-3.2265,-3.2289,-3.2289,-3.2296,-3.2393,-3.2392,-3.2264,-3.2267,-3.2269,-3.227,0,0,0,0,0,0,0,-3.2406,-3.241,-3.2466,-3.2406,-3.2396,-3.2356,-3.2351,-3.2412,-3.2339,-3.232,-3.2308,-3.2306,-3.2283,-3.2292,-3.2294,-3.2391,-3.2264,-3.2268,-3.2271,-3.2272,-3.2603,-3.2609,0,0,0,0,0,0,-3.2417,-3.2411,-3.2467,-3.2465,-3.2384,-3.2363,-3.2357,-3.2378,-3.2338,-3.2326,-3.2311,-3.2299,-3.2288,-3.2289,-3.2293,-3.2456,-3.2269,-3.2273,-3.2275,-3.2597,-3.2604,-3.2611,0,0,0,0,0,0,-3.2416,-3.2424,-3.2468,-3.2435,-3.2437,-3.237,-3.2395,-3.238,-3.2389,-3.2332,-3.2318,-3.2333,-3.2283,-3.2287,-3.237,-3.2453,-3.2275,-3.2279,-3.2589,-3.2599,-3.2608,-3.2787,0,0,0,0,0,0,-3.2415,-3.2424,-3.2478,-3.2437,-3.244,-3.2545,-3.24,-3.2384,-3.2396,-3.238,-3.2349,-3.2338,-3.2279,-3.2364,-3.2374,-3.2456,-3.2282,-3.2582,-3.2594,-3.2605,-3.2773,-3.2801,-3.2825,0,0,0,0,0,-3.2412,-3.2531,-3.2481,-3.2489,-3.2505,-3.2551,-3.2552,-3.248,-3.2404,-3.2457,-3.242,-3.2339,-3.2443,-3.2374,-3.2384,-3.2468,-3.2576,-3.259,-3.2604,-3.2761,-3.2795,-3.2824,0,0,0,0,0,0,-3.2585,-3.2524,-3.2468,-3.2577,-3.257,-3.2523,-3.2588,-3.2519,-3.2534,-3.2518,-3.243,-3.2424,-3.252,-3.2503,-3.2427,-3.2604,-3.2496,-3.2512,-3.2612,-3.2644,-3.267,-3.2671,-3.2286,0,0,0,0,0,-3.2635,-3.2676,-3.2621,-3.2722,-3.2721,-3.2656,-3.2673,-3.2618,-3.2608,-3.2604,-3.2573,-3.2567,-3.2598,-3.262,-3.2646,-3.277,-3.276,-3.2833,-3.2859,-3.2881,-3.2896,-3.2959,-3.299,-3.2657,-3.2656,-3.2656,0,0,-3.274,-3.2712,-3.2743,-3.2756,-3.2744,-3.2789,-3.2654,-3.2708,-3.274,-3.2613,-3.2688,-3.2666,-3.2653,-3.2757,-3.2801,-3.2745,-3.2986,-3.2899,-3.2916,-3.2919,-3.2976,-3.3008,-3.3036,-3.2666,-3.2664,-3.2663,0,0,-3.2953,-3.2937,-3.3018,-3.3009,-3.2992,-3.2947,-3.2967,-3.293,-3.291,-3.2984,-3.2888,-3.2927,-3.2982,-3.2976,-3.2981,-3.3192,-3.3117,-3.3203,-3.3338,-3.34,-3.3426,-3.3449,-3.3523,-3.3551,-3.3218,-3.3219,-3.3219,0,-3.3086,-3.3149,-3.3069,-3.3128,-3.3136,-3.3022,-3.3103,-3.3098,-3.3092,-3.31,-3.3037,-3.3103,-3.3087,-3.3187,-3.3238,-3.3247,-3.3266,-3.3205,-3.3429,-3.3451,-3.3471,-3.354,-3.3569,-3.3229,-3.3228,-3.3227,-3.3226,0,-3.3312,-3.3357,-3.3425,-3.3419,-3.3435,-3.3506,-3.3437,-3.3463,-3.3407,-3.337,-3.3446,-3.3423,-3.344,-3.346,-3.3407,-3.3553,-3.3519,-3.3445,-3.3333,-3.3515,-3.3578,-3.3604,-3.3244,-3.324,-3.3237,-3.3234,0,0,-3.3632,-3.358,-3.3607,-3.3602,-3.3574,-3.3608,-3.3674,-3.3689,-3.3713,-3.3713,-3.3764,-3.3814,-3.3744,-3.3749,-3.3695,-3.375,-3.3917,-3.3668,-3.3666,-3.3714,-3.4074,-3.4129,-3.4161,-3.3868,-3.3873,-3.3876,-3.4075,0,-3.3835,-3.3941,-3.3871,-3.399,-3.4029,-3.3921,-3.3978,-3.3968,-3.3935,-3.3965,-3.3928,-3.3964,-3.387,-3.3872,-3.3922,-3.3886,-3.3988,-3.3871,-3.3915,-3.3918,-3.392,-3.4195,-3.4253,-3.4441,-3.4099,-3.4103,-3.4107,0,-3.4085,-3.4093,-3.4215,-3.4178,-3.4192,-3.4244,-3.4252,-3.4283,-3.4269,-3.4241,-3.4247,-3.4178,-3.424,-3.4131,-3.4215,-3.4137,-3.4152,-3.4137,-3.4142,-3.4142,-3.4022,-3.42,-3.4499,-3.4527,-3.4145,-3.4142,-3.4139,0,-3.4304,-3.4346,-3.4423,-3.4423,-3.4382,-3.4421,-3.4407,-3.4387,-3.4401,-3.4409,-3.4417,-3.4433,-3.4442,-3.4456,-3.4394,-3.4321,-3.4486,-3.4372,-3.4463,-3.4465,-3.4501,-3.45,-3.4805,-3.4515,-3.4514,-3.4514,-3.4513,0,-3.4536,-3.4614,-3.452,-3.4568,-3.4653,-3.4572,-3.4659,-3.4633,-3.4616,-3.4657,-3.4566,-3.4607,-3.4523,-3.4555,-3.4507,-3.4583,-3.4588,-3.4567,-3.4553,-3.4574,-3.4577,-3.4581,-3.4565,-3.4521,-3.452,-3.4518,-3.4517,0,-3.4794,-3.4734,-3.4811,-3.4766,-3.4757,-3.4821,-3.4783,-3.4825,-3.4786,-3.4839,-3.4847,-3.4786,-3.4819,-3.4759,-3.4785,-3.4753,-3.4859,-3.4825,-3.4863,-3.4852,-3.4946,-3.4937,-3.5263,-3.5301,-3.4989,-3.4992,-3.4995,0,-3.4945,-3.5002,-3.4963,-3.4982,-3.4972,-3.5007,-3.5019,-3.4943,-3.496,-3.4949,-3.4993,-3.5019,-3.5034,-3.5093,-3.5052,-3.5071,-3.5037,-3.515,-3.5039,-3.5058,-3.5036,-3.5032,-3.5037,-3.5172,-3.5176,-3.5179,-3.5181,0,-3.5218,-3.5185,-3.5206,-3.5218,-3.5235,-3.5241,-3.524,-3.5263,-3.5182,-3.5206,-3.5238,-3.5251,-3.5276,-3.5303,-3.5312,-3.5298,-3.5227,-3.5217,-3.5238,-3.5259,-3.5278,-3.5267,-3.4922,-3.5209,-3.5206,-3.5204,-3.5203,-3.5202,-3.5425,-3.547,-3.5449,-3.5475,-3.5467,-3.5468,-3.5505,-3.547,-3.5494,-3.5508,-3.5462,-3.5505,-3.549,-3.5495,-3.5488,-3.5521,-3.5471,-3.5503,-3.5511,-3.5519,-3.5533,-3.5275,-3.5523,-3.5522,-3.5521,-3.5521,-3.552,0,-3.5691,-3.5672,-3.5698,-3.5698,-3.5719,-3.5649,-3.5645,-3.5667,-3.5705,-3.5697,-3.5714,-3.5751,-3.5776,-3.5737,-3.5755,-3.5789,-3.5757,-3.5796,-3.5792,-3.5789,-3.5578,-3.5556,-3.5822,-3.5822,-3.5822,-3.5822,-3.5822,-3.5822,-3.5832,-3.5904,-3.5869,-3.5936,-3.5916,-3.5956,-3.5959,-3.596,-3.5952,-3.5997,-3.6016,-3.599,-3.5969,-3.5985,-3.6005,-3.5993,-3.6004,-3.6054,-3.6031,-3.5834,-3.5804,-3.5776,-3.5755,-3.6058,-3.6058,-3.6239,-3.624,-3.6242]},{"header":{"parameterUnit":"m.s-1","parameterCategory":1,"la1":30.2991,"la2":30.254,"lo1":-89.0895,"lo2":-89.0444,"dy":0.0017,"dx":0.0017,"nx":28,"ny":28,"refTime":"2025-08-10T03:00:00:Z","depth":0,"parameterNumber":3,"parameterNumberName":"V-component_of_WINDS"},"data":[0,0,0,0,0,0,0,0,0,0,0,0,0,0,0,0,0,0,0,0,0,0,0,0,0,0,0,0,0,0,0,0,0,0,0,0,0,0,0,0,0,0,0,0,0,0,0,0,0,0,0,0,0,0,0,0,0,0,-1.2235,-1.2236,0,-1.228,-1.2281,-1.2281,-1.2316,-1.2316,-1.2316,-1.2317,-1.236,-1.2361,-1.2362,0,0,0,0,0,0,0,0,0,0,0,0,0,-1.2176,-1.2177,-1.2235,-1.2236,-1.2236,-1.228,-1.2281,-1.2281,-1.2316,-1.2316,-1.2316,-1.2317,-1.236,-1.2361,-1.2362,0,0,0,0,0,0,0,0,0,0,0,0,0,-1.2209,-1.2177,-1.2235,-1.2259,-1.2261,-1.228,-1.2281,-1.2281,-1.2315,-1.2316,-1.2316,-1.2317,-1.2359,-1.2361,-1.2362,-1.236,0,0,-1.2366,-1.2366,0,0,0,0,0,0,0,0,-1.2207,-1.2211,-1.2255,-1.2257,-1.226,-1.2293,-1.2276,-1.2308,-1.2315,-1.2295,-1.2317,-1.2317,-1.2337,-1.234,-1.2348,-1.2362,-1.2364,-1.2366,-1.2367,-1.2367,-1.2368,0,0,0,0,0,0,0,-1.2205,-1.221,-1.2253,-1.2255,-1.2259,-1.2266,-1.2271,-1.2282,-1.2313,-1.2297,-1.2299,-1.2304,-1.2339,-1.2346,-1.2349,-1.2364,-1.2366,-1.2367,-1.2368,-1.2368,-1.2377,-1.2377,0,0,0,0,0,0,-1.2199,-1.2207,-1.2252,-1.2254,-1.2234,-1.2267,-1.2273,-1.2282,-1.2313,-1.2318,-1.2304,-1.2306,-1.2344,-1.2347,-1.235,-1.2349,-1.2367,-1.2368,-1.2369,-1.2378,-1.2377,-1.2377,0,0,0,0,0,0,-1.2198,-1.2203,-1.225,-1.2232,-1.2238,-1.2267,-1.2277,-1.2282,-1.229,-1.2318,-1.2323,-1.2306,-1.2344,-1.2349,-1.2357,-1.2351,-1.2369,-1.237,-1.2379,-1.2378,-1.2377,-1.2346,0,0,0,0,0,0,-1.2196,-1.2202,-1.2203,-1.2231,-1.2239,-1.2256,-1.2277,-1.2283,-1.2292,-1.2295,-1.2322,-1.2326,-1.2345,-1.2355,-1.2358,-1.2353,-1.2371,-1.2379,-1.2378,-1.2377,-1.2348,-1.2345,-1.2342,0,0,0,0,0,-1.2194,-1.2192,-1.2202,-1.2208,-1.224,-1.2256,-1.226,-1.2283,-1.2292,-1.2292,-1.2309,-1.2326,-1.2351,-1.2356,-1.236,-1.2355,-1.238,-1.2379,-1.2377,-1.2349,-1.2345,-1.2342,0,0,0,0,0,0,-1.2161,-1.2196,-1.2208,-1.2216,-1.2233,-1.2262,-1.2263,-1.2278,-1.2292,-1.2294,-1.232,-1.2326,-1.2331,-1.2344,-1.2348,-1.2353,-1.2367,-1.2367,-1.2345,-1.2341,-1.2338,-1.2334,-1.2372,0,0,0,0,0,-1.2155,-1.2166,-1.2196,-1.2199,-1.2207,-1.2233,-1.2241,-1.2257,-1.2275,-1.2282,-1.2301,-1.2317,-1.2328,-1.2336,-1.2348,-1.235,-1.2355,-1.2349,-1.2345,-1.2343,-1.2342,-1.2342,-1.2339,-1.2373,-1.2373,-1.2373,0,0,-1.2142,-1.2163,-1.2168,-1.2193,-1.2208,-1.2218,-1.2239,-1.2249,-1.2256,-1.2283,-1.2292,-1.2306,-1.2326,-1.2331,-1.2334,-1.2342,-1.2333,-1.2341,-1.2339,-1.2339,-1.2341,-1.2337,-1.2334,-1.2372,-1.2372,-1.2372,0,0,-1.2124,-1.2141,-1.2145,-1.216,-1.2182,-1.2199,-1.22,-1.2227,-1.2237,-1.2247,-1.2267,-1.2275,-1.2295,-1.2308,-1.2317,-1.2302,-1.2316,-1.2305,-1.2288,-1.2288,-1.2285,-1.2283,-1.2276,-1.2274,-1.2304,-1.2304,-1.2304,0,-1.2105,-1.2121,-1.2145,-1.2153,-1.2163,-1.2189,-1.2193,-1.2205,-1.223,-1.2236,-1.2244,-1.2269,-1.2284,-1.2292,-1.2288,-1.2295,-1.2295,-1.2302,-1.2284,-1.2282,-1.228,-1.2274,-1.2271,-1.2302,-1.2302,-1.2303,-1.2303,0,-1.2095,-1.2106,-1.2107,-1.213,-1.214,-1.2146,-1.217,-1.2177,-1.2192,-1.2207,-1.2216,-1.2235,-1.2251,-1.2254,-1.2268,-1.2263,-1.2267,-1.2279,-1.2294,-1.2275,-1.2269,-1.2267,-1.23,-1.23,-1.2301,-1.2301,0,0,-1.2058,-1.2095,-1.2094,-1.2105,-1.2131,-1.2139,-1.2145,-1.2161,-1.2166,-1.2182,-1.2187,-1.2202,-1.2214,-1.2224,-1.2239,-1.224,-1.2224,-1.2252,-1.2253,-1.2245,-1.2218,-1.2208,-1.2205,-1.2235,-1.2234,-1.2234,-1.2216,0,-1.2042,-1.2056,-1.2078,-1.2083,-1.2093,-1.2117,-1.2122,-1.2138,-1.2152,-1.2161,-1.2177,-1.2187,-1.2202,-1.2208,-1.221,-1.2226,-1.2219,-1.2228,-1.2238,-1.2238,-1.2231,-1.2202,-1.2191,-1.2174,-1.2214,-1.2214,-1.2214,0,-1.2027,-1.2041,-1.2048,-1.2072,-1.2077,-1.2081,-1.2097,-1.2105,-1.2123,-1.2133,-1.2144,-1.2161,-1.2167,-1.2181,-1.2189,-1.2195,-1.22,-1.2208,-1.2208,-1.2209,-1.2224,-1.2201,-1.2169,-1.2165,-1.2211,-1.2211,-1.2211,0,-1.1997,-1.2018,-1.2025,-1.2033,-1.2062,-1.2064,-1.2075,-1.2094,-1.2102,-1.2115,-1.212,-1.2134,-1.2141,-1.215,-1.217,-1.2179,-1.2175,-1.2191,-1.2183,-1.2182,-1.2181,-1.218,-1.2147,-1.2186,-1.2186,-1.2186,-1.2186,0,-1.1977,-1.198,-1.2012,-1.2015,-1.2019,-1.2043,-1.2045,-1.2059,-1.2075,-1.2081,-1.2103,-1.2107,-1.2134,-1.2141,-1.2156,-1.216,-1.2163,-1.2171,-1.2175,-1.2168,-1.2167,-1.2172,-1.2173,-1.2185,-1.2185,-1.2185,-1.2186,0,-1.1944,-1.1966,-1.1974,-1.2,-1.2007,-1.2008,-1.203,-1.2033,-1.2049,-1.2056,-1.2059,-1.2083,-1.2093,-1.2114,-1.2129,-1.214,-1.2139,-1.2146,-1.2133,-1.2135,-1.2125,-1.2125,-1.2093,-1.2089,-1.2131,-1.2131,-1.213,0,-1.1929,-1.1932,-1.1958,-1.1964,-1.1975,-1.1984,-1.1992,-1.2016,-1.2023,-1.2042,-1.2043,-1.2055,-1.2066,-1.208,-1.2098,-1.2109,-1.2117,-1.2105,-1.2119,-1.2112,-1.2115,-1.2114,-1.2114,-1.2101,-1.2101,-1.21,-1.21,0,-1.1901,-1.1911,-1.1922,-1.1936,-1.1945,-1.1957,-1.1971,-1.1974,-1.2,-1.2007,-1.2017,-1.2026,-1.2041,-1.2052,-1.2066,-1.2077,-1.2092,-1.2095,-1.2094,-1.2087,-1.2078,-1.2081,-1.2123,-1.2096,-1.2096,-1.2097,-1.2097,-1.2097,-1.1876,-1.1879,-1.1897,-1.1908,-1.1921,-1.1932,-1.1937,-1.1953,-1.1962,-1.1977,-1.199,-1.1999,-1.2015,-1.2035,-1.2045,-1.2051,-1.2059,-1.2057,-1.2057,-1.2056,-1.2052,-1.2078,-1.2054,-1.2054,-1.2055,-1.2055,-1.2055,0,-1.1847,-1.186,-1.187,-1.1888,-1.1896,-1.191,-1.1925,-1.1931,-1.1939,-1.1953,-1.1962,-1.1973,-1.1984,-1.2002,-1.2014,-1.2015,-1.2022,-1.2017,-1.2017,-1.2019,-1.2045,-1.2045,-1.2011,-1.2011,-1.2011,-1.2011,-1.2011,-1.2011,-1.1833,-1.1838,-1.185,-1.1861,-1.1874,-1.1883,-1.189,-1.19,-1.1911,-1.1923,-1.1932,-1.1944,-1.1959,-1.1972,-1.1981,-1.1986,-1.1989,-1.1981,-1.1988,-1.2013,-1.2017,-1.2021,-1.2021,-1.1982,-1.1982,-1.1961,-1.1961,-1.1961]}]]